DELTA 1 DEB, 10642

Orbit data source: Space-Track

DELTA 1 DEB, 10642 is space debris in SSO originally from a launch on Thu, 29 Jul 1976 UTC launched from the Air Force Western Test Range (AFWTR). Debris objects in space refer to the collection of defunct objects orbiting the Earth. Examples of debris include non-operational satellites, rocket bodies, and fragments generated from explosions, collisions, or faulty payload assembly.

Loading next visibility...
Identifier
10642, 1976-077C
Orbit
SSO
Country
Flag of USUS
Related business
Manufacturer
Unknown
Mission
Spacecraft
Bus & Motor
Unknown
Mass
Unknown
Launch date (UTC)
1976-07-29 (50 years ago)
Launch vehicle
Unknown
Launch site
Air Force Western Test Range (AFWTR)
Object type
Payload
Rocket body
Debris
Shape & HBR
Unknown shape, 0.1 m
Radar Cross Section
Medium (>0.1 m² and <1 m²)

Expand to show TLE details & history
Last TLE update: 17 hours ago

TLE from 17 hours ago
0 DELTA 1 DEB
1 10642U 76077C   26170.82529299  .00000010  00000-0  49698-3 0  9992
2 10642 102.2475 121.7479 0103069  26.3623   1.2494 12.21833814225358
Epoch: 2026-06-19T19:48Z
TLE epoch observation values (Epoch: 2026-06-19T19:48:25.314Z)
Latitude
26.99464°
Longitude
-89.72381°
Altitude
1,505.452 km
Speed
7.151 km/s
True Right ascension
07h 41m 43s
True Declination
26° 52' 08"
Sunlit
Object was in daylight at epoch
Visualization orbit readout
Latitude
Unknown
Longitude
Unknown
Altitude
Unknown
Speed
Unknown
Apparent Right ascension
Unknown
Apparent Declination
Unknown
Sunlit
N/A
Visualization observer readout
Local Sidereal Time
23:39:05
Azimuth
Unknown
Elevation
Unknown
Doppler factor
Unknown
Orbital elements
Apogee altitude
1,664.223 km
Perigee altitude
1,500.131 km
Semi-major axis
7,960.314 km
Eccentricity
0.01031
Inclination
102.2475°
RAAN
121.7479°
Arg. of periapsis
26.3623°
True anomaly
1.27549°
Mean anomaly
1.2494°
Eccentric anomaly
1.26241°
Mean motion
3.05596 °/min
Orbital period
117.8 mins
BSTAR
0.00049698
Loading maneuver chart data...
Computing Atmospheric mass density...
Loading historical data...
Loading historical data...
Loading historical data...
Loading historical data...
Loading historical data...
Loading historical data...
Loading historical data...

Documentation

Showing up to 5 results
|